Waarnemingen

Advertentie
Mijn weer
Agen, Frankrijk (7524): temperatuur & dauwpunt: 19.02.2018 20:00:00 - 25.02.2018 20:00:00 (CET)Agen, Frankrijk (7524): temperatuur 5cm: 19.02.2018 20:00:00 - 25.02.2018 20:00:00 (CET)Agen, Frankrijk (7524): temperatuur -20cm & temperatuur -100cm: 19.02.2018 20:00:00 - 25.02.2018 20:00:00 (CET)Agen, Frankrijk (7524): windsnelheid & windstoten: 19.02.2018 20:00:00 - 25.02.2018 20:00:00 (CET)Agen, Frankrijk (7524): windrichting: 19.02.2018 20:00:00 - 25.02.2018 20:00:00 (CET)Agen, Frankrijk (7524): luchtdruk: 19.02.2018 20:00:00 - 25.02.2018 20:00:00 (CET)Agen, Frankrijk (7524): zicht: 19.02.2018 20:00:00 - 25.02.2018 20:00:00 (CET)Agen, Frankrijk (7524): Zonneschijnduur: 19.02.2018 20:00:00 - 25.02.2018 20:00:00 (CET)Agen, Frankrijk (7524): neerslag: 19.02.2018 20:00:00 - 25.02.2018 20:00:00 (CET)
Datum & Tijd tt [°C] td [°C] tt 5cm [°C] tt -20cm [°C] tt -100cm [°C] ff [km/u] ff [kn] fx [km/u] fx [kn] dd ppp [hPa] vv [km] sd [min] rr [mm]
25.02.2018 20:00:00 4,7 0,1 -0,6 6,8 9,5 7 4 11 6 W 1013,8 8 0 0,0
25.02.2018 19:00:00 5,5 0,5 1,5 6,8 9,5 8 4 16 9 W 1013,5 7 18 0,0
25.02.2018 18:00:00 6,8 1,1 6,1 6,7 9,5 13 7 22 12 WNW 1013,1 8 60 0,0
25.02.2018 17:00:00 7,9 1,3 9,7 6,6 9,5 15 8 28 15 WNW 1012,5 8 60 0,0
25.02.2018 16:00:00 7,6 1,2 12,7 6,5 9,6 12 7 32 17 WNW 1012,5 8 54 0,0
25.02.2018 15:00:00 7,2 0,6 12,6 6,4 9,5 16 9 30 16 WNW 1012,5 8 54 0,0
25.02.2018 14:00:00 6,8 0,7 15,0 6,4 9,6 18 10 28 15 NW 1012,4 7 60 0,0
25.02.2018 13:00:00 5,9 -0,8 13,1 6,4 9,6 18 10 25 14 WNW 1012,7 8 60 0,0
25.02.2018 12:00:00 5,2 0,4 12,3 6,5 9,6 13 7 28 15 NW 1012,9 7 60 0,0
25.02.2018 11:00:00 3,6 0,5 7,2 6,5 9,6 8 5 15 8 WNW 1012,8 7 60 0,0
25.02.2018 10:00:00 1,6 0,4 -0,7 6,6 9,6 6 4 10 5 WNW 1012,8 6 60 0,0
25.02.2018 09:00:00 -1,2 -1,8 -6,6 6,7 9,6 3 2 5 3 W 1012,8 3,4 57 0,0
25.02.2018 08:00:00 -3,4 -3,9 -7,8 6,7 9,6 0 0 5 3 N 1012,8 2,8 0 0,0
25.02.2018 07:00:00 -2,1 -2,7 -7,8 6,7 9,6 4 2 4 2 ZZW 1012,6 3,4 0 0,0
25.02.2018 06:00:00 -2,1 -2,8 -7,4 6,8 9,6 0 0 3 2 N 1012,2 3,3 0 0,0
25.02.2018 05:00:00 -1,8 -2,6 -6,6 6,8 9,6 0 0 5 3 N 1012,3 3,7 0 0,0
25.02.2018 04:00:00 -0,7 -1,4 -5,6 6,9 9,6 3 2 5 3 Z 1012,2 3,8 0 0,0
25.02.2018 03:00:00 -1,0 -1,8 -5,5 6,9 9,6 4 2 6 4 NW 1012,0 4,6 0 0,0
25.02.2018 02:00:00 -1,7 -2,5 -6,5 7,0 9,7 4 2 5 3 NW 1012,2 4,0 0 0,0
25.02.2018 01:00:00 -1,3 -2,3 -6,1 7,0 9,7 0 0 3 2 N 1012,3 5 0 0,0
25.02.2018 00:00:00 -0,8 -1,9 -6,1 7,0 9,6 0 0 3 1 N 1012,2 4,4 0 0,0
24.02.2018 23:00:00 -0,6 -2,3 -5,2 7,1 9,6 2 1 5 3 ONO 1012,3 7 0 0,0
24.02.2018 22:00:00 0,9 -1,5 -5,1 7,1 9,7 3 1 5 3 ZW 1012,0 8 0 0,0
24.02.2018 21:00:00 2,2 -1,4 -3,3 7,0 9,7 3 2 10 5 WNW 1011,9 8 0 0,0
24.02.2018 20:00:00 4,9 -0,3 0,7 7,0 9,7 7 4 9 5 WZW 1011,5 9 0 0,0
24.02.2018 19:00:00 5,5 -0,1 1,9 6,9 9,7 5 3 8 4 W 1011,3 9 0 0,0
24.02.2018 18:00:00 7,0 0,0 7,1 6,9 9,7 6 3 10 6 W 1010,6 11 3 0,0
24.02.2018 17:00:00 7,3 -0,9 8,7 6,8 9,7 8 4 13 7 NNW 1010,4 13 0 0,0
24.02.2018 16:00:00 7,3 -1,2 9,9 6,7 9,7 7 4 13 7 NW 1010,1 13 0 0,0
24.02.2018 15:00:00 7,4 -0,6 10,4 6,7 9,7 10 5 16 9 WNW 1010,1 15 0 0,0
24.02.2018 14:00:00 7,5 -0,7 15,3 6,7 9,7 4 2 14 7 WNW 1010,2 13 42 0,0
24.02.2018 13:00:00 6,5 -0,9 15,6 6,7 9,7 6 4 13 7 W 1010,7 14 60 0,0
24.02.2018 12:00:00 4,6 -0,8 9,7 6,7 9,7 5 3 10 5 N 1011,2 10 60 0,0
24.02.2018 11:00:00 1,5 0,0 4,9 6,8 9,7 3 2 6 3 N 1011,2 7 58 0,0
24.02.2018 10:00:00 -1,0 -1,6 -2,8 6,9 9,7 0 0 3 1 N 1011,2 4,8 14 0,0
24.02.2018 09:00:00 -3,6 -4,3 -9,0 7,0 9,7 0 0 3 2 N 1011,4 4,8 0 0,0
24.02.2018 08:00:00 -5,0 -5,7 -10,2 7,1 9,7 0 0 3 1 N 1010,9 4,3 0 0,0
24.02.2018 07:00:00 -4,7 -5,4 -9,8 7,1 9,7 0 0 4 2 N 1010,2 5 0 0,0
24.02.2018 06:00:00 -4,7 -5,5 -9,7 7,2 9,7 2 1 3 2 ZO 1010,4 4,9 0 0,0
24.02.2018 05:00:00 -4,0 -4,8 -9,7 7,3 9,7 0 0 6 3 N 1010,1 6 0 0,0
24.02.2018 04:00:00 -4,2 -5,0 -9,4 7,4 9,7 0 0 2 1 N 1009,9 7 0 0,0
24.02.2018 03:00:00 -3,7 -4,7 -8,8 7,5 9,7 0 0 0 0 N 1010,0 6 0 0,0
24.02.2018 02:00:00 -3,2 -4,2 -8,4 7,5 9,7 0 0 3 1 N 1010,1 6 0 0,0
24.02.2018 01:00:00 -3,4 -4,7 -8,4 7,6 9,7 0 0 2 1 N 1010,1 7 0 0,0
24.02.2018 00:00:00 -2,9 -4,3 -8,4 7,7 9,8 0 0 4 2 N 1010,2 8 0 0,0
23.02.2018 23:00:00 -2,5 -4,4 -8,1 7,7 9,7 2 1 4 2 WZW 1010,3 8 0 0,0
23.02.2018 22:00:00 -0,5 -3,5 -7,2 7,8 9,8 3 2 5 3 WZW 1010,4 10 0 0,0
23.02.2018 21:00:00 -0,9 -3,9 -6,6 7,7 9,7 3 2 5 3 WZW 1010,3 10 0 0,0
23.02.2018 20:00:00 0,9 -3,4 -5,3 7,7 9,7 4 2 8 5 WZW 1010,1 10 0 0,0
23.02.2018 19:00:00 3,5 -4,2 -2,6 7,7 9,8 2 1 13 7 O 1009,8 15 0 0,0
23.02.2018 18:00:00 4,7 -3,6 4,4 7,7 9,8 10 5 14 8 NNW 1009,6 17 0 0,0
23.02.2018 17:00:00 5,2 -2,9 6,8 7,6 9,8 8 4 14 7 NNW 1009,3 16 0 0,0
23.02.2018 16:00:00 5,2 -3,4 7,6 7,6 9,8 5 3 16 9 NW 1009,6 16 0 0,0
23.02.2018 15:00:00 5,3 -3,3 10,0 7,5 9,8 8 4 14 8 NNW 1009,7 13 0 0,0
23.02.2018 14:00:00 5,3 -2,8 10,8 7,5 9,8 4 2 12 6 NNW 1010,1 12 0 0,0
23.02.2018 13:00:00 6,1 -2,3 10,7 7,5 9,8 3 2 10 5 Z 1010,4 14 44 0,0
23.02.2018 12:00:00 4,8 -1,2 8,0 7,5 9,8 3 1 10 5 NW 1010,9 12 19 0,0
23.02.2018 11:00:00 3,0 -1,2 3,9 7,6 9,8 5 3 11 6 WNW 1011,2 11 0 0,0
23.02.2018 10:00:00 1,9 -1,5 1,5 7,6 9,8 5 3 11 6 W 1011,1 9 0 0,0
23.02.2018 09:00:00 1,4 -1,5 0,8 7,6 9,8 7 4 10 6 W 1010,9 9 0 0,0
23.02.2018 08:00:00 1,3 -1,6 0,6 7,7 9,8 6 3 9 5 W 1010,6 9 0 0,0
23.02.2018 07:00:00 1,3 -1,8 0,8 7,7 9,8 6 3 14 7 W 1010,5 9 0 0,0
23.02.2018 06:00:00 1,5 -1,7 1,1 7,7 9,8 9 5 13 7 W 1010,4 8 0 0,0
23.02.2018 05:00:00 1,9 -1,4 1,4 7,8 9,8 10 6 14 7 WNW 1010,4 8 0 0,0
23.02.2018 04:00:00 2,2 -1,2 1,6 7,8 9,8 10 6 14 8 WNW 1010,8 9 0 0,0
23.02.2018 03:00:00 2,7 -1,7 1,8 7,8 9,8 10 5 14 7 WNW 1011,1 10 0 0,0
23.02.2018 02:00:00 3,0 -1,6 2,3 7,9 9,8 8 4 13 7 W 1011,4 10 0 0,0
23.02.2018 01:00:00 3,2 -1,2 1,4 7,9 9,8 8 5 13 7 W 1011,6 9 0 0,0
23.02.2018 00:00:00 3,0 -2,3 0,6 7,9 9,8 7 4 9 5 WNW 1011,8 9 0 0,0
22.02.2018 23:00:00 3,5 -2,7 1,7 7,9 9,8 6 3 10 6 NW 1012,1 12 0 0,0
22.02.2018 22:00:00 4,7 -4,3 3,5 8,0 9,8 5 3 23 13 NO 1012,3 14 0 0,0
22.02.2018 21:00:00 5,1 -5,0 4,0 8,0 9,8 13 7 28 15 NNO 1012,2 14 0 0,0
22.02.2018 20:00:00 5,7 -4,5 3,2 8,0 9,8 21 11 37 20 NNO 1011,9 13 0 0,0
22.02.2018 19:00:00 5,5 -3,6 2,3 7,9 9,8 13 7 32 17 NNW 1011,3 15 14 0,0
22.02.2018 18:00:00 6,8 -4,6 5,7 7,9 9,8 19 10 35 19 NNW 1010,4 16 60 0,0
22.02.2018 17:00:00 7,8 -5,0 8,6 7,9 9,8 23 12 36 20 NW 1009,9 12 60 0,0
22.02.2018 16:00:00 8,1 -3,4 12,9 7,8 9,8 21 12 40 22 NNW 1010,2 9 60 0,0
22.02.2018 15:00:00 7,4 -1,8 13,3 7,8 9,8 25 14 38 21 NW 1010,6 8 60 0,0
22.02.2018 14:00:00 6,7 -1,7 13,8 7,8 9,8 20 11 33 18 NW 1011,5 7 60 0,0
22.02.2018 13:00:00 5,5 -1,7 10,0 7,9 9,8 19 10 33 18 NW 1012,3 7 60 0,0
22.02.2018 12:00:00 3,9 -1,5 5,7 7,9 9,8 16 9 27 14 NW 1013,1 7 48 0,0
22.02.2018 11:00:00 2,4 -1,4 4,6 8,0 9,8 17 9 29 16 NW 1013,4 6 45 0,0
22.02.2018 10:00:00 1,2 -0,9 -0,4 8,1 9,8 10 5 19 10 NW 1013,5 5 23 0,0
22.02.2018 09:00:00 -0,4 -1,5 -3,0 8,1 9,8 13 7 19 10 WNW 1013,7 3,5 29 0,0
22.02.2018 08:00:00 -0,9 -2,2 -3,7 8,2 9,8 9 5 16 9 W 1013,5 3,7 0 0,0
22.02.2018 07:00:00 -0,6 -1,9 -3,0 8,3 9,8 5 3 21 12 W 1013,6 4,3 0 0,0
22.02.2018 06:00:00 -0,5 -1,8 -2,3 8,4 9,8 11 6 17 9 W 1013,3 4,0 0 0,0
22.02.2018 05:00:00 0,1 -1,5 -2,0 8,4 9,7 11 6 19 11 W 1013,5 4,8 0 0,0
22.02.2018 04:00:00 0,1 -1,7 -1,6 8,5 9,8 12 7 21 11 WNW 1013,7 5 0 0,0
22.02.2018 03:00:00 0,4 -1,7 -3,5 8,6 9,8 13 7 19 11 WNW 1014,2 7 0 0,0
22.02.2018 02:00:00 -0,9 -2,9 -3,2 8,6 9,8 11 6 13 7 WNW 1014,6 7 0 0,0
22.02.2018 01:00:00 0,5 -2,1 -2,5 8,7 9,8 9 5 14 8 W 1014,9 8 0 0,0
22.02.2018 00:00:00 1,0 -1,9 -2,7 8,7 9,8 12 6 16 8 W 1015,2 8 0 0,0
21.02.2018 23:00:00 2,1 -2,1 -0,9 8,8 9,8 9 5 19 10 W 1015,6 11 0 0,0
21.02.2018 22:00:00 2,4 -1,8 -0,9 8,8 9,8 10 5 22 12 W 1015,8 11 0 0,0
21.02.2018 21:00:00 3,7 -1,9 1,2 8,8 9,7 12 7 26 14 NNW 1015,8 12 0 0,0
21.02.2018 20:00:00 4,5 -1,5 0,9 8,9 9,8 11 6 21 11 NNW 1015,5 14 0 0,0
21.02.2018 19:00:00 5,6 -1,8 2,9 8,8 9,7 15 8 24 13 NNW 1015,1 16 3 0,0
21.02.2018 18:00:00 6,8 -2,1 5,5 8,8 9,7 19 10 35 19 NNW 1014,5 20 41 0,0
21.02.2018 17:00:00 7,8 -0,9 7,4 8,8 9,7 18 10 37 20 N 1014,2 20 47 0,0
21.02.2018 16:00:00 8,1 -1,2 12,7 8,8 9,7 26 14 36 20 NNW 1014,0 15 60 0,0
21.02.2018 15:00:00 8,0 -1,8 14,5 8,8 9,7 23 12 41 22 NNW 1014,5 12 60 0,0
21.02.2018 14:00:00 7,6 -0,9 11,7 8,8 9,7 19 10 33 18 NNW 1015,4 10 56 0,0
21.02.2018 13:00:00 6,7 -1,5 12,2 8,8 9,7 21 11 34 18 NNW 1016,2 10 57 0,0
21.02.2018 12:00:00 6,0 -1,2 7,2 8,9 9,7 20 11 33 18 NNW 1016,5 9 60 0,0
21.02.2018 11:00:00 5,4 -0,2 5,9 8,9 9,7 19 10 32 17 N 1016,6 13 55 0,0
21.02.2018 10:00:00 4,4 0,5 2,9 9,0 9,7 14 7 32 17 NNW 1017,1 11 58 0,0
21.02.2018 09:00:00 3,4 0,6 0,8 9,0 9,7 13 7 26 14 WNW 1016,5 12 33 0,0
21.02.2018 08:00:00 2,8 0,7 0,8 9,0 9,7 13 7 23 13 WNW 1016,1 20 0 0,0
21.02.2018 07:00:00 4,1 1,6 2,0 9,1 9,7 16 9 29 15 NNW 1015,6 41 0 0,0
21.02.2018 06:00:00 5,5 3,3 3,2 9,1 9,7 14 8 26 14 N 1014,5 60 0 0,0
21.02.2018 05:00:00 6,7 5,0 5,1 9,1 9,7 14 8 34 18 N 1013,9 60 0 0,0
21.02.2018 04:00:00 7,3 5,9 6,5 9,1 9,7 17 9 25 14 NNW 1013,9 41 0 0,0
21.02.2018 03:00:00 7,4 6,2 6,8 9,1 9,7 13 7 25 14 NW 1014,2 26 0 0,2
21.02.2018 02:00:00 7,9 6,8 7,2 9,1 9,7 20 11 36 19 NW 1014,8 29 0 0,8
21.02.2018 01:00:00 8,6 8,0 7,4 9,1 9,7 13 7 22 12 WNW 1015,1 2,2 0 1,2
21.02.2018 00:00:00 8,6 7,5 7,1 9,1 9,7 13 7 22 12 W 1015,0 39 0 0,0
20.02.2018 23:00:00 8,9 8,0 8,0 9,1 9,7 12 6 24 13 W 1016,1 18 0 0,2
20.02.2018 22:00:00 9,2 8,4 8,6 9,1 9,7 11 6 17 9 W 1016,7 14 0 0,0
20.02.2018 21:00:00 9,5 8,6 8,7 9,1 9,7 11 6 28 15 NW 1017,1 19 0 0,6
20.02.2018 20:00:00 9,8 9,0 9,1 9,1 9,7 16 8 30 16 NNW 1017,0 2,4 0 2,8
20.02.2018 19:00:00 10,0 8,9 9,3 9,1 9,7 24 13 36 19 WNW 1016,5 10 0 0,0
20.02.2018 18:00:00 10,1 9,0 9,5 9,0 9,7 23 12 35 19 WNW 1016,5 17 0 0,0
20.02.2018 17:00:00 10,5 9,3 10,0 9,0 9,7 26 14 36 19 WNW 1016,3 7 0 0,2
20.02.2018 16:00:00 10,6 9,5 10,3 9,0 9,7 22 12 37 20 WNW 1016,2 13 0 0,0
20.02.2018 15:00:00 10,9 9,2 10,3 9,0 9,7 24 13 39 21 WNW 1016,4 30 0 0,0
20.02.2018 14:00:00 11,3 8,9 10,6 8,9 9,7 23 13 37 20 WNW 1016,6 36 0 0,0
20.02.2018 13:00:00 11,0 9,1 10,6 8,9 9,7 25 13 39 21 WNW 1016,8 25 0 0,0
20.02.2018 12:00:00 10,6 9,0 10,2 8,9 9,7 24 13 37 20 WNW 1016,8 19 0 0,0
20.02.2018 11:00:00 10,3 9,2 9,5 8,9 9,7 23 13 36 20 WNW 1017,1 20 0 0,0
20.02.2018 10:00:00 9,8 9,2 9,3 8,9 9,7 21 12 32 18 WNW 1017,0 34 0 0,2
20.02.2018 09:00:00 9,8 9,3 9,4 8,9 9,7 19 10 27 14 WNW 1016,4 20 0 0,2
20.02.2018 08:00:00 9,9 9,4 9,5 8,9 9,7 17 9 28 15 WNW 1016,2 8 0 0,4
20.02.2018 07:00:00 9,9 9,6 9,5 8,9 9,7 15 8 23 12 WNW 1015,9 10 0 0,4
20.02.2018 06:00:00 9,8 9,5 9,4 8,9 9,7 16 9 24 13 WNW 1016,0 11 0 0,4
20.02.2018 05:00:00 9,8 9,5 9,1 8,9 9,7 16 9 25 13 W 1016,2 20 0 0,4
20.02.2018 04:00:00 9,5 9,2 8,8 8,8 9,6 12 6 19 11 W 1016,6 10 0 0,8
20.02.2018 03:00:00 9,1 8,8 8,6 8,9 9,6 10 6 16 9 W 1017,0 7 0 0,2
20.02.2018 02:00:00 8,9 8,4 8,5 8,9 9,7 9 5 15 8 W 1017,4 4,6 0 0,2
20.02.2018 01:00:00 8,9 8,4 8,4 8,8 9,6 10 5 18 10 W 1017,7 19 0 0,0
20.02.2018 00:00:00 8,9 8,4 8,4 8,9 9,6 9 5 16 8 W 1017,7 11 0 0,0
19.02.2018 23:00:00 8,8 8,3 8,1 8,9 9,6 10 5 16 8 W 1017,7 9 0 0,0
19.02.2018 22:00:00 8,6 8,0 8,0 8,9 9,6 8 5 12 6 W 1018,0 12 0 0,0
19.02.2018 21:00:00 8,6 7,7 8,0 8,8 9,6 6 4 9 5 W 1018,3 7 0 0,2
19.02.2018 20:00:00 8,8 7,4 8,1 8,8 9,6 5 3 9 5 WNW 1018,3 20 0 0,0

tt = temperatuur
td = dauwpunt
tt 5cm = temperatuur 5cm
tt -20cm = temperatuur -20cm
tt -100cm = temperatuur -100cm
ff = windsnelheid
fx = windstoten
dd = windrichting
ppp = luchtdruk
vv = zicht
sd = Zonneschijnduur
rr = neerslag

Weerstations in de omgeving